Torna al catalogo

STARLINK-4468

AttivoComunicazioniVLEO
NORAD 53969·PAYLOAD·🇺🇸 United States

Lanciato Oct 5, 2022 da Vandenberg Space Force Base

Loading…

Prossimi Passaggi (prossime 24 ore)

TLE

AggiornatoSource: CelesTrak SupGP

Epoca: Sep 14, 2026, 21:46 UTC

1 53969C 22125F   26257.90743056  .00014052  00000+0  42636-3 0  2572
2 53969  53.1578  87.7146 0000867  81.5670  83.6824 15.33544654    16

Traccia STARLINK-4468 in tempo reale con AllMySat

Download on the App Store